This demonstration page uses our WeatherBlox Daily Observations layout. Learn more.

Hourly Observations for September 9, 2019

Temp ( °F °C ) Dew Point ( °F °C ) Humidity (%) Winds ( mph kmh ) Pressure ( in mb ) Visibility ( mi km ) Precip ( " mm )
12:15 am 00:15 Cloudy 68 20 63 17 83 83 Calm 30.15 1021 10 16.09344 0 0
12:35 am 00:35 Cloudy 70 21 63 17 78 78 Calm 30.15 1021 10 16.09344 0 0
12:55 am 00:55 Cloudy 68 20 63 17 83 83 Calm 30.15 1021 10 16.09344 0 0
1:15 am 01:15 Cloudy 70 21 61 16 73 73 N 3 6 30.15 1021 10 16.09344 0 0
1:35 am 01:35 Cloudy 68 20 63 17 83 83 Calm 30.15 1021 10 16.09344 0 0
1:55 am 01:55 Cloudy 68 20 63 17 83 83 Calm 30.15 1021 10 16.09344 0 0
2:15 am 02:15 Cloudy 66 19 64 18 94 94 Calm 30.15 1021 10 16.09344 0 0
2:35 am 02:35 Cloudy 66 19 64 18 94 94 Calm 30.15 1021 10 16.09344 0 0
2:55 am 02:55 Cloudy 68 20 63 17 83 83 Calm 30.15 1021 10 16.09344 0 0
3:15 am 03:15 Cloudy 64 18 63 17 94 94 Calm 30.15 1021 10 16.09344 0 0
3:35 am 03:35 Cloudy 66 19 63 17 88 88 S 5 7 30.15 1021 10 16.09344 0 0
3:55 am 03:55 Cloudy 64 18 63 17 94 94 Calm 30.15 1021 10 16.09344 0 0
4:15 am 04:15 Cloudy 64 18 63 17 94 94 Calm 30.15 1021 10 16.09344 0 0
4:35 am 04:35 Cloudy 64 18 63 17 94 94 N 3 6 30.15 1021 10 16.09344 0 0
4:55 am 04:55 Cloudy 64 18 63 17 94 94 Calm 30.15 1021 10 16.09344 0 0
5:15 am 05:15 Cloudy 66 19 63 17 88 88 Calm 30.15 1021 10 16.09344 0 0
5:35 am 05:35 Cloudy 66 19 63 17 88 88 Calm 30.18 1022 10 16.09344 0 0
5:55 am 05:55 Cloudy 66 19 63 17 88 88 Calm 30.18 1022 10 16.09344 0 0
6:15 am 06:15 Cloudy 68 20 61 16 78 78 NNE 5 7 30.18 1022 10 16.09344 0 0
6:35 am 06:35 Cloudy 66 19 61 16 83 83 N 6 9 30.18 1022 10 16.09344 0 0
6:55 am 06:55 Cloudy 66 19 61 16 83 83 NNE 6 9 30.18 1022 10 16.09344 0 0
7:15 am 07:15 Cloudy 66 19 61 16 83 83 NE 6 9 30.18 1022 10 16.09344 0 0
7:35 am 07:35 Cloudy 68 20 61 16 78 78 NNE 5 7 30.21 1023 7 11.265408 0 0
7:55 am 07:55 Cloudy 68 20 61 16 78 78 Calm 30.21 1023 10 16.09344 0 0
8:15 am 08:15 Cloudy 68 20 61 16 78 78 Calm 30.21 1023 10 16.09344 0 0
8:35 am 08:35 Cloudy 68 20 61 16 78 78 NE 3 6 30.21 1023 10 16.09344 0 0
8:55 am 08:55 Cloudy 68 20 61 16 78 78 N 5 7 30.21 1023 10 16.09344 0 0
9:15 am 09:15 Cloudy 68 20 61 16 78 78 NNE 3 6 30.24 1024 10 16.09344 0 0
9:35 am 09:35 Cloudy 70 21 61 16 73 73 NNE 5 7 30.24 1024 10 16.09344 0 0
9:55 am 09:55 Cloudy 70 21 61 16 73 73 NNE 5 7 30.24 1024 10 16.09344 0 0
10:15 am 10:15 Cloudy 72 22 63 17 73 73 Calm 30.24 1024 10 16.09344 0 0
10:35 am 10:35 Cloudy 72 22 63 17 73 73 NE 3 6 30.24 1024 10 16.09344 0 0
10:55 am 10:55 Cloudy 72 22 63 17 73 73 ENE 3 6 30.24 1024 10 16.09344 0 0
11:15 am 11:15 Cloudy 72 22 63 17 73 73 N 6 9 30.24 1024 10 16.09344 0 0
11:35 am 11:35 Cloudy 72 22 63 17 73 73 Calm 30.24 1024 10 16.09344 0 0
11:55 am 11:55 Cloudy 73 23 63 17 69 69 Calm 30.24 1024 10 16.09344 0 0
12:15 pm 12:15 Cloudy 73 23 63 17 69 69 Calm 30.24 1024 10 16.09344 0 0
12:35 pm 12:35 Cloudy 75 24 63 17 65 65 Calm 30.24 1024 10 16.09344 0 0
12:55 pm 12:55 Cloudy 77 25 63 17 61 61 Calm 30.21 1023 10 16.09344 0 0
1:15 pm 13:15 Cloudy 79 26 63 17 58 58 Calm 30.24 1024 10 16.09344 0 0
1:35 pm 13:35 Cloudy 79 26 63 17 58 58 WNW 5 7 30.21 1023 10 16.09344 0 0
1:55 pm 13:55 Cloudy 79 26 63 17 58 58 NNW 5 7 30.21 1023 10 16.09344 0 0
2:15 pm 14:15 Cloudy 79 26 63 17 58 58 NNW 3 6 30.21 1023 10 16.09344 0 0
2:35 pm 14:35 Mostly Cloudy 79 26 63 17 58 58 Calm 30.21 1023 10 16.09344 0 0
2:55 pm 14:55 Cloudy 79 26 63 17 58 58 NW 3 6 30.21 1023 10 16.09344 0 0
3:15 pm 15:15 Cloudy 79 26 63 17 58 58 Calm 30.21 1023 10 16.09344 0 0
3:35 pm 15:35 Mostly Cloudy 81 27 63 17 54 54 WNW 5 7 30.21 1023 10 16.09344 0 0
3:55 pm 15:55 Cloudy 79 26 63 17 58 58 Calm 30.21 1023 10 16.09344 0 0
4:15 pm 16:15 Cloudy 79 26 63 17 58 58 N 5 7 30.21 1023 10 16.09344 0 0
4:35 pm 16:35 Cloudy 79 26 63 17 58 58 Calm 30.21 1023 10 16.09344 0 0
4:55 pm 16:55 Cloudy 79 26 63 17 58 58 NE 5 7 30.21 1023 10 16.09344 0 0
5:15 pm 17:15 Cloudy 79 26 63 17 58 58 NE 5 7 30.21 1023 10 16.09344 0 0
5:35 pm 17:35 Cloudy 79 26 63 17 58 58 NNE 3 6 30.21 1023 10 16.09344 0 0
5:55 pm 17:55 Cloudy 79 26 63 17 58 58 NE 5 7 30.21 1023 10 16.09344 0 0
6:15 pm 18:15 Cloudy 79 26 61 16 54 54 ENE 5 7 30.21 1023 10 16.09344 0 0
6:35 pm 18:35 Partly Cloudy 79 26 61 16 54 54 NE 3 6 30.21 1023 10 16.09344 0 0
6:55 pm 18:55 Sunny 79 26 61 16 54 54 NE 3 6 30.21 1023 10 16.09344 0 0
7:15 pm 19:15 Sunny 79 26 61 16 54 54 NE 3 6 30.21 1023 10 16.09344 0 0
7:35 pm 19:35 Clear 77 25 63 17 61 61 NE 3 6 30.21 1023 10 16.09344 0 0
7:55 pm 19:55 Clear 75 24 63 17 65 65 Calm 30.21 1023 10 16.09344 0 0
8:15 pm 20:15 Clear 75 24 63 17 65 65 Calm 30.21 1023 10 16.09344 0 0
8:35 pm 20:35 Clear 70 21 63 17 78 78 Calm 30.24 1024 10 16.09344 0 0
8:55 pm 20:55 Clear 70 21 64 18 83 83 Calm 30.24 1024 10 16.09344 0 0
9:15 pm 21:15 Clear 70 21 64 18 83 83 Calm 30.24 1024 10 16.09344 0 0
9:35 pm 21:35 Clear 68 20 64 18 88 88 Calm 30.27 1025 10 16.09344 0 0
9:55 pm 21:55 Clear 68 20 64 18 88 88 Calm 30.27 1025 10 16.09344 0 0
10:15 pm 22:15 Clear 66 19 64 18 94 94 Calm 30.27 1025 10 16.09344 0 0
10:35 pm 22:35 Clear 64 18 63 17 94 94 Calm 30.27 1025 10 16.09344 0 0
10:55 pm 22:55 Clear 66 19 63 17 88 88 Calm 30.27 1025 10 16.09344 0 0
11:15 pm 23:15 Clear 64 18 63 17 94 94 Calm 30.27 1025 10 16.09344 0 0
11:35 pm 23:35 Clear 63 17 63 17 100 100 Calm 30.27 1025 10 16.09344 0 0
11:55 pm 23:55 Clear 64 18 63 17 94 94 Calm 30.27 1025 10 16.09344 0 0

Powered by AerisWeather